FW5423 Weather Reports


Display with metric or nautical units.
time (UTC)temp
F
wind
direction
speed
MPH
gust
MPH
rain 1hr
in
rain 24hr
in
rain mn
in
humidity
%
barometer
mb
20260505053055 62 359 13.0 19.0 0.00 0.00 0.00 93 1017.7
20260505052557 62 359 15.0 19.0 0.00 0.00 0.00 93 1017.6
20260505052058 62 359 13.0 18.0 0.00 0.00 0.00 94 1017.8
20260505051554 62 359 13.0 17.0 0.00 0.00 0.00 94 1017.8
20260505051054 62 359 12.0 17.0 0.00 0.00 0.00 94 1017.8
20260505050553 61 359 13.0 17.0 0.00 0.00 0.00 94 1017.8
20260505050124 62 359 12.0 17.0 0.00 0.00 0.00 94 1018.0
20260505041605 61 359 11.0 18.0 0.00 0.00 0.00 94 1018.4
20260505041054 61 359 12.0 18.0 0.00 0.00 0.00 94 1018.4
20260505040557 61 359 11.0 15.0 0.00 0.00 0.00 94 1018.5
20260505040100 61 359 11.0 14.0 0.00 0.00 0.00 94 1018.5
20260505035053 61 359 10.0 14.0 0.00 0.00 0.00 94 1018.7
20260505034553 61 359 9.0 14.0 0.00 0.00 0.00 94 1018.8
20260505034053 61 359 9.0 12.0 0.00 0.00 0.00 94 1018.8
20260505033553 61 359 9.0 11.0 0.00 0.00 0.00 94 1018.9
20260505033053 61 359 9.0 11.0 0.00 0.00 0.00 93 1019.0
20260505032552 61 359 8.0 11.0 0.00 0.00 0.00 93 1019.1
20260505032055 61 359 8.0 11.0 0.00 0.00 0.00 92 1019.0
20260505031554 62 359 7.0 10.0 0.00 0.00 0.00 92 1019.1
20260505031053 62 359 7.0 10.0 0.00 0.00 0.00 91 1019.1
20260505030552 62 359 7.0 10.0 0.00 0.00 0.00 91 1019.1
20260505030052 62 359 7.0 10.0 0.00 0.00 0.00 91 1019.2
20260505025052 62 359 6.0 9.0 0.00 0.00 0.00 91 1019.3
20260505024551 62 359 5.0 11.0 0.00 0.00 0.00 92 1019.2
20260505024051 62 359 6.0 11.0 0.00 0.00 0.00 92 1019.3
20260505023551 61 359 7.0 11.0 0.00 0.00 0.00 93 1019.3
20260505023053 61 359 9.0 13.0 0.00 0.01 0.00 93 1019.2
20260505022551 61 359 9.0 14.0 0.00 0.01 0.00 93 1019.0
20260505022052 61 359 10.0 14.0 0.00 0.01 0.00 92 1018.9
20260505021551 61 359 10.0 15.0 0.00 0.01 0.00 92 1018.9
20260505021050 61 359 11.0 15.0 0.00 0.01 0.00 92 1018.9
20260505020550 61 359 11.0 15.0 0.00 0.01 0.00 92 1018.9
20260505020050 61 359 10.0 15.0 0.00 0.01 0.00 92 1018.9
20260505015051 61 359 10.0 14.0 0.00 0.01 0.00 93 1018.9
20260505014605 61 359 10.0 14.0 0.00 0.01 0.00 93 1018.9
20260505014050 61 359 10.0 13.0 0.00 0.01 0.00 94 1018.9
20260505013550 61 359 9.0 13.0 0.00 0.01 0.00 94 1019.0
20260505013051 61 359 9.0 12.0 0.00 0.01 0.00 94 1019.0
20260505012549 61 359 9.0 12.0 0.00 0.01 0.00 94 1019.0
20260505012050 61 359 8.0 11.0 0.00 0.01 0.00 95 1018.9
20260505011550 61 359 7.0 10.0 0.00 0.01 0.00 95 1019.0
20260505011051 61 359 7.0 11.0 0.00 0.01 0.00 94 1019.1
20260505010549 61 359 8.0 11.0 0.00 0.01 0.00 95 1018.9
20260505010049 61 359 8.0 11.0 0.00 0.01 0.00 95 1019.1
20260505005048 61 359 8.0 13.0 0.00 0.01 0.00 96 1018.9
20260505004548 61 359 9.0 13.0 0.00 0.01 0.00 96 1018.7
20260505004048 61 359 10.0 13.0 0.00 0.01 0.00 97 1018.7
20260505003548 60 359 9.0 13.0 0.00 0.01 0.00 97 1018.7
20260505003048 60 359 9.0 13.0 0.00 0.01 0.00 98 1018.8
20260505002551 60 359 10.0 13.0 0.00 0.01 0.00 98 1018.7
20260505002048 60 359 10.0 13.0 0.00 0.01 0.00 98 1018.8
20260505001602 60 359 9.0 11.0 0.00 0.01 0.00 98 1018.7
20260505001047 60 359 8.0 12.0 0.00 0.01 0.00 98 1018.6
20260505000547 59 359 9.0 12.0 0.00 0.01 0.00 98 1018.7
20260505000104 59 359 7.0 11.0 0.00 0.01 0.00 98 1018.6
20260504235049 59 359 6.0 8.0 0.00 0.01 0.00 98 1018.6
20260504234606 59 359 5.0 8.0 0.00 0.01 0.00 98 1018.6
20260504234047 60 359 6.0 8.0 0.00 0.01 0.00 97 1018.6
20260504233551 59 359 6.0 8.0 0.00 0.01 0.00 97 1018.6
20260504233053 60 359 6.0 8.0 0.00 0.01 0.00 97 1018.6
20260504232548 60 359 5.0 7.0 0.00 0.01 0.00 97 1018.7
20260504232047 60 359 5.0 6.0 0.00 0.01 0.00 98 1018.8
20260504231547 60 359 3.0 4.0 0.00 0.01 0.00 98 1018.8
20260504231047 60 359 3.0 4.0 0.00 0.01 0.00 98 1018.6
20260504230547 60 359 2.0 4.0 0.00 0.01 0.00 98 1018.8
20260504230048 59 359 2.0 4.0 0.00 0.01 0.00 98 1018.5
20260504225050 58 359 1.0 2.0 0.00 0.01 0.00 98 1018.5
20260504224604 58 359 0.0 3.0 0.00 0.01 0.00 97 1018.5
20260504224047 58 359 1.0 3.0 0.00 0.01 0.00 97 1018.6
20260504223547 58 359 1.0 3.0 0.00 0.01 0.00 97 1018.5
20260504223048 59 359 1.0 2.0 0.00 0.01 0.00 96 1018.4
20260504222548 59 359 0.0 2.0 0.00 0.01 0.00 96 1018.3
20260504222048 60 359 0.0 1.0 0.00 0.01 0.00 96 1018.3
20260504221547 60 359 0.0 4.0 0.00 0.01 0.00 97 1018.3
20260504221047 60 359 2.0 6.0 0.00 0.01 0.00 97 1018.2
20260504220547 60 359 3.0 6.0 0.00 0.01 0.00 97 1018.1
20260504220047 60 359 4.0 6.0 0.00 0.01 0.00 97 1018.0
20260504215044 60 359 5.0 7.0 0.00 0.01 0.00 98 1018.0
20260504214545 59 359 2.0 6.0 0.00 0.01 0.00 97 1018.0
20260504214044 59 359 0.0 5.0 0.00 0.01 0.00 97 1018.0
20260504213545 59 359 2.0 4.0 0.00 0.01 0.00 96 1017.9
20260504213102 60 359 0.0 3.0 0.00 0.01 0.00 96 1017.9
20260504212546 60 359 1.0 6.0 0.00 0.01 0.00 96 1017.7
20260504212047 60 359 3.0 7.0 0.00 0.01 0.00 96 1017.4
20260504211544 60 359 4.0 7.0 0.00 0.01 0.00 97 1017.2
20260504211044 60 359 5.0 8.0 0.00 0.01 0.00 96 1017.1
20260504210544 60 359 5.0 9.0 0.00 0.01 0.00 96 1016.9
20260504210047 60 359 5.0 9.0 0.00 0.01 0.00 96 1016.9
20260504205045 60 359 6.0 8.0 0.00 0.01 0.00 96 1016.8
20260504204547 61 359 5.0 7.0 0.00 0.01 0.00 96 1017.1
20260504204044 61 359 4.0 7.0 0.00 0.01 0.00 96 1017.1
20260504203548 61 359 6.0 7.0 0.00 0.01 0.00 96 1017.1
20260504203056 61 359 5.0 7.0 0.00 0.01 0.00 96 1017.0
20260504202545 61 359 4.0 6.0 0.00 0.01 0.00 96 1017.0
20260504202043 61 359 0.0 3.0 0.00 0.01 0.00 97 1017.3
20260504201544 61 359 0.0 6.0 0.00 0.01 0.00 96 1017.3
20260504201044 60 359 3.0 6.0 0.00 0.01 0.00 96 1017.2
20260504200544 60 359 4.0 6.0 0.00 0.01 0.00 97 1017.1
20260504200049 60 359 2.0 5.0 0.00 0.01 0.00 97 1017.0
20260504195045 61 359 2.0 4.0 0.00 0.01 0.00 96 1017.2
20260504194556 61 359 0.0 5.0 0.00 0.01 0.00 96 1017.1
20260504194042 61 359 2.0 5.0 0.00 0.01 0.00 95 1017.1
20260504193545 61 359 0.0 4.0 0.00 0.01 0.00 96 1017.1
20260504193051 62 359 0.0 4.0 0.00 0.01 0.00 95 1017.1
20260504192542 62 359 0.0 4.0 0.00 0.01 0.00 96 1017.1
20260504192041 62 359 0.0 4.0 0.00 0.01 0.00 94 1017.2
20260504191541 61 359 1.0 4.0 0.00 0.01 0.00 94 1017.1
20260504191042 61 359 2.0 5.0 0.00 0.01 0.00 94 1016.9
20260504190545 61 359 2.0 6.0 0.00 0.01 0.00 94 1017.0
20260504190042 61 359 4.0 8.0 0.00 0.01 0.00 94 1017.0
20260504185042 61 359 5.0 8.0 0.00 0.01 0.00 94 1016.9
20260504184542 61 359 5.0 7.0 0.00 0.01 0.00 95 1016.9
20260504184041 61 359 3.0 5.0 0.00 0.01 0.00 95 1017.1
20260504183544 61 359 3.0 6.0 0.00 0.01 0.00 94 1017.2
20260504183040 61 359 3.0 7.0 0.00 0.01 0.00 94 1017.3
20260504182544 61 359 4.0 7.0 0.00 0.01 0.00 94 1017.2
20260504182041 61 359 4.0 8.0 0.00 0.01 0.00 94 1017.1
20260504181543 61 359 5.0 8.0 0.00 0.01 0.00 93 1017.2
20260504181039 62 359 4.0 6.0 0.00 0.01 0.00 93 1017.3
20260504180541 62 359 3.0 6.0 0.00 0.01 0.00 93 1017.4
20260504180039 62 359 4.0 9.0 0.00 0.01 0.00 92 1017.4
20260504175043 62 359 6.0 11.0 0.00 0.01 0.00 92 1017.5
20260504174543 62 359 7.0 11.0 0.00 0.01 0.00 92 1017.4
20260504174041 62 359 6.0 10.0 0.00 0.01 0.00 93 1017.5
20260504173542 61 359 7.0 10.0 0.00 0.01 0.00 93 1017.7
20260504173048 61 359 6.0 10.0 0.00 0.01 0.00 93 1017.6
20260504172539 61 359 7.0 10.0 0.00 0.01 0.00 93 1017.7
20260504172038 61 359 6.0 11.0 0.00 0.01 0.00 93 1017.9
20260504171538 61 359 7.0 11.0 0.00 0.01 0.00 93 1018.0
20260504171037 61 359 6.0 13.0 0.00 0.01 0.00 93 1018.3
20260504170536 61 359 9.0 13.0 0.00 0.01 0.00 93 1018.3
20260504151015 56 359 9.0 15.0 0.00 0.01 0.00 99 1019.9
20260504150514 56 359 8.0 17.0 0.00 0.01 0.00 99 1020.0
20260504141011 56 359 13.0 21.0 0.00 0.01 0.00 99 1020.5
20260504140509 55 359 15.0 21.0 0.00 0.01 0.00 99 1020.5
20260504130503 55 359 10.0 16.0 0.00 0.01 0.00 99 1020.7
20260504110547 53 359 11.0 16.0 0.00 0.02 0.00 99 1019.7
20260504100537 52 359 11.0 16.0 0.00 0.02 0.00 99 1019.6
20260504081528 51 359 7.0 12.0 0.00 0.02 0.02 99 1018.2
20260504081028 51 359 7.0 10.0 0.00 0.02 0.02 99 1018.1
20260504080528 51 354 7.0 10.0 0.00 0.02 0.02 99 1017.9